Flag for Germany Weather past 2 weeks in Bad Salzuflen, North Rhine-Westphalia, Germany

Now
46 °F

Partly sunny.


Feels Like: 41 °F
Forecast: 36 / 62 °F
Wind: 10 mph from Northwest

Location: Bueckeburg


UV Index: 0 (Low)

Visibility: N/A


Pressure: 29.86 "Hg

Humidity: 76%

Dew point: 39 °F

Location of Bad SalzuflenLocation

Historic Weather in Bad Salzuflen

°F

Bad Salzuflen temperature yesterday

Maximum temperature yesterday: 63 °F (at 5:20 PM)
Minimum temperature yesterday: 43 °F (at 5:20 AM)
Average temperature yesterday: 52 °F

Past Weeks' High & Low Weather Summary

 TemperatureHumidityPressure
High72 °F (Apr 3, 4:20 PM)100% (Apr 5, 2:20 AM)30.48 "Hg (Apr 5, 2:20 AM)
Low30 °F (Apr 16, 4:20 AM)31% (Apr 17, 6:20 PM)29.62 "Hg (Apr 3, 3:20 PM)
Average51 °F74%30.03 "Hg
* Reported Apr 3 10:20 AM — Apr 18 10:20 AM, Bad Salzuflen, Weather by CustomWeather, © 2014

Note: Actual official high and low records may vary slightly from our data, if they occured in-between our weather recording intervals... More about our weather records

Advertising

Historic Weather Conditions — Data for Previous 24 hours

 ConditionsComfort  
Time TempWeatherWind HumidityBarometerVisibility
10:20 AM
Apr 18
46 °FPartly sunny.10 mph76%29.86 "HgN/A
9:20 AM45 °FPartly sunny.12 mph81%29.86 "HgN/A
8:20 AM43 °FPartly sunny.9 mph87%29.86 "HgN/A
7:20 AM43 °FPartly sunny.9 mph87%29.86 "HgN/A
6:20 AM43 °FPassing clouds.7 mph87%29.83 "HgN/A
5:20 AM45 °FQuite cool.9 mph87%29.83 "Hg4 mi
4:20 AM45 °FQuite cool.8 mph87%29.83 "Hg4 mi
3:20 AM45 °FQuite cool.8 mph93%29.83 "Hg5 mi
2:20 AM45 °FQuite cool.5 mph93%29.83 "Hg5 mi
1:20 AM46 °FCool.14 mph87%29.86 "Hg3 mi
12:20 AM50 °FCool.12 mph76%29.86 "Hg4 mi
11:20 PM
Apr 17
55 °FRefreshingly cool.13 mph47%29.83 "Hg5 mi
10:20 PM54 °FCool.10 mph51%29.86 "HgN/A
9:20 PM57 °FRefreshingly cool.8 mph41%29.89 "HgN/A
8:20 PM57 °FRefreshingly cool.6 mph41%29.89 "HgN/A
6:20 PM61 °FPartly sunny.13 mph31%29.95 "HgN/A
5:20 PM63 °FScattered clouds.15 mph32%29.95 "HgN/A
4:20 PM61 °FScattered clouds.12 mph34%30.01 "HgN/A
3:20 PM61 °FPartly sunny.10 mph34%30.04 "HgN/A
2:20 PM59 °FPartly sunny.9 mph39%30.09 "HgN/A
1:20 PM57 °FBroken clouds.9 mph44%30.12 "HgN/A
12:20 PM55 °FPartly sunny.12 mph41%30.15 "HgN/A
11:20 AM54 °FPartly sunny.12 mph44%30.21 "HgN/A
Weather by CustomWeather, © 2014

See weather overview